Time,TemperatureF,DewpointF,PressureIn,WindDirection,WindDirectionDegrees,WindSpeedMPH,WindSpeedGustMPH,Humidity,HourlyPrecipIn,Conditions,Clouds,dailyrainin,SoftwareType,DateUTC
2013-12-11 00:07:00,29.1,21.5,30.12,SW,225,0.0,-999.0,73,-99.99,,,0.00,Acu-Link.com,2013-12-11 06:07:00,
2013-12-11 00:22:00,28.2,21.6,30.12,SW,225,0.0,-999.0,76,-99.99,,,0.00,Acu-Link.com,2013-12-11 06:22:00,
2013-12-11 00:37:00,28.6,21.7,30.13,SW,225,0.0,-999.0,75,-99.99,,,0.00,Acu-Link.com,2013-12-11 06:37:00,
2013-12-11 00:52:00,28.6,21.7,30.12,SW,225,2.7,-999.0,75,-99.99,,,0.00,Acu-Link.com,2013-12-11 06:52:00,
2013-12-11 01:07:00,28.6,21.7,30.11,SW,225,3.7,-999.0,75,-99.99,,,0.00,Acu-Link.com,2013-12-11 07:07:00,
2013-12-11 01:22:00,28.6,21.7,30.12,SW,225,1.7,-999.0,75,-99.99,,,0.00,Acu-Link.com,2013-12-11 07:22:00,
2013-12-11 01:37:00,28.4,21.5,30.13,SW,225,2.2,-999.0,75,-99.99,,,0.00,Acu-Link.com,2013-12-11 07:37:00,
2013-12-11 01:52:00,28.9,21.4,30.12,SW,225,2.2,-999.0,73,-99.99,,,0.00,Acu-Link.com,2013-12-11 07:52:00,
2013-12-11 02:07:00,28.2,21.6,30.13,SW,225,0.0,-999.0,76,-99.99,,,0.00,Acu-Link.com,2013-12-11 08:07:00,
2013-12-11 02:22:00,29.3,21.7,30.13,SSE,157,3.2,-999.0,73,-99.99,,,0.00,Acu-Link.com,2013-12-11 08:22:00,
2013-12-11 02:38:00,28.2,21.3,30.13,SSE,157,2.2,-999.0,75,-99.99,,,0.00,Acu-Link.com,2013-12-11 08:38:00,
2013-12-11 02:53:00,28.2,21.3,30.12,SSE,157,0.0,-999.0,75,-99.99,,,0.00,Acu-Link.com,2013-12-11 08:53:00,
2013-12-11 03:08:00,28.4,21.5,30.14,SSE,157,0.0,-999.0,75,-99.99,,,0.00,Acu-Link.com,2013-12-11 09:08:00,
2013-12-11 03:23:00,28.6,21.7,30.13,SSE,157,0.0,-999.0,75,-99.99,,,0.00,Acu-Link.com,2013-12-11 09:23:00,
2013-12-11 03:38:00,29.1,21.9,30.12,SSE,157,0.0,-999.0,74,-99.99,,,0.00,Acu-Link.com,2013-12-11 09:38:00,
2013-12-11 03:54:00,29.1,21.9,30.13,SSE,157,2.2,-999.0,74,-99.99,,,0.00,Acu-Link.com,2013-12-11 09:54:00,
2013-12-11 04:09:00,29.1,21.9,30.12,SSE,157,2.2,-999.0,74,-99.99,,,0.00,Acu-Link.com,2013-12-11 10:09:00,
2013-12-11 04:24:00,29.1,22.2,30.12,SSE,157,2.7,-999.0,75,-99.99,,,0.00,Acu-Link.com,2013-12-11 10:24:00,
2013-12-11 04:39:00,29.3,22.4,30.13,SSE,157,1.1,-999.0,75,-99.99,,,0.00,Acu-Link.com,2013-12-11 10:39:00,
2013-12-11 04:54:00,29.5,22.6,30.13,SSE,157,2.2,-999.0,75,-99.99,,,0.00,Acu-Link.com,2013-12-11 10:54:00,
2013-12-11 05:09:00,29.5,22.3,30.13,SSE,157,0.0,-999.0,74,-99.99,,,0.00,Acu-Link.com,2013-12-11 11:09:00,
2013-12-11 05:25:00,29.5,22.3,30.13,SSE,157,2.2,-999.0,74,-99.99,,,0.00,Acu-Link.com,2013-12-11 11:25:00,
2013-12-11 05:40:00,29.3,22.4,30.14,SSE,157,2.2,-999.0,75,-99.99,,,0.00,Acu-Link.com,2013-12-11 11:40:00,
2013-12-11 05:55:00,29.1,22.2,30.13,SSE,157,1.7,-999.0,75,-99.99,,,0.00,Acu-Link.com,2013-12-11 11:55:00,
2013-12-11 06:11:00,29.1,22.5,30.13,SSE,157,1.7,-999.0,76,-99.99,,,0.00,Acu-Link.com,2013-12-11 12:11:00,
2013-12-11 06:26:00,29.1,22.5,30.13,SSE,157,0.0,-999.0,76,-99.99,,,0.00,Acu-Link.com,2013-12-11 12:26:00,
2013-12-11 06:41:00,28.8,22.5,30.14,SSE,157,0.0,-999.0,77,-99.99,,,0.00,Acu-Link.com,2013-12-11 12:41:00,
2013-12-11 06:56:00,28.6,22.3,30.14,SSE,157,0.0,-999.0,77,-99.99,,,0.00,Acu-Link.com,2013-12-11 12:56:00,
2013-12-11 07:11:00,28.0,22.0,30.15,SSE,157,0.0,-999.0,78,-99.99,,,0.00,Acu-Link.com,2013-12-11 13:11:00,
2013-12-11 07:26:00,27.9,22.2,30.16,SSE,157,0.0,-999.0,79,-99.99,,,0.00,Acu-Link.com,2013-12-11 13:26:00,
2013-12-11 07:41:00,27.7,22.1,30.17,SSE,157,0.0,-999.0,79,-99.99,,,0.00,Acu-Link.com,2013-12-11 13:41:00,
2013-12-11 07:57:00,30.0,23.7,30.17,SSE,157,2.2,-999.0,77,-99.99,,,0.00,Acu-Link.com,2013-12-11 13:57:00,
2013-12-11 08:12:00,31.8,23.8,30.18,SSE,157,2.2,-999.0,72,-99.99,,,0.00,Acu-Link.com,2013-12-11 14:12:00,
2013-12-11 08:27:00,33.6,24.9,30.18,SSE,157,2.7,-999.0,70,-99.99,,,0.00,Acu-Link.com,2013-12-11 14:27:00,
2013-12-11 08:43:00,34.3,25.2,30.19,SSE,157,1.1,-999.0,69,-99.99,,,0.00,Acu-Link.com,2013-12-11 14:43:00,
2013-12-11 08:58:00,33.6,25.2,30.20,SSE,157,0.0,-999.0,71,-99.99,,,0.00,Acu-Link.com,2013-12-11 14:58:00,
2013-12-11 09:13:00,33.6,25.2,30.22,SSE,157,1.7,-999.0,71,-99.99,,,0.00,Acu-Link.com,2013-12-11 15:13:00,
2013-12-11 09:28:00,36.3,26.4,30.22,SSE,157,1.7,-999.0,67,-99.99,,,0.00,Acu-Link.com,2013-12-11 15:28:00,
2013-12-11 09:43:00,36.0,26.1,30.23,SSE,157,1.7,-999.0,67,-99.99,,,0.00,Acu-Link.com,2013-12-11 15:43:00,
2013-12-11 09:59:00,38.3,26.8,30.24,SSE,157,2.7,-999.0,63,-99.99,,,0.00,Acu-Link.com,2013-12-11 15:59:00,
2013-12-11 10:14:00,40.5,28.1,30.24,SW,225,2.7,-999.0,61,-99.99,,,0.00,Acu-Link.com,2013-12-11 16:14:00,
2013-12-11 10:29:00,41.2,28.4,30.25,SW,225,1.1,-999.0,60,-99.99,,,0.00,Acu-Link.com,2013-12-11 16:29:00,
2013-12-11 10:44:00,42.8,27.8,30.25,SW,225,2.2,-999.0,55,-99.99,,,0.00,Acu-Link.com,2013-12-11 16:44:00,
2013-12-11 10:59:00,44.1,27.6,30.25,SW,225,3.7,-999.0,52,-99.99,,,0.00,Acu-Link.com,2013-12-11 16:59:00,
2013-12-11 11:15:00,45.3,26.8,30.25,SW,225,6.8,-999.0,48,-99.99,,,0.00,Acu-Link.com,2013-12-11 17:15:00,
2013-12-11 11:30:00,46.6,27.5,30.24,SW,225,2.2,-999.0,47,-99.99,,,0.00,Acu-Link.com,2013-12-11 17:30:00,
2013-12-11 11:45:00,48.0,27.1,30.24,WSW,247,6.3,-999.0,44,-99.99,,,0.00,Acu-Link.com,2013-12-11 17:45:00,
2013-12-11 12:00:00,48.2,28.9,30.24,WNW,292,2.7,-999.0,47,-99.99,,,0.00,Acu-Link.com,2013-12-11 18:00:00,
2013-12-11 12:15:00,49.1,27.6,30.23,WNW,292,3.7,-999.0,43,-99.99,,,0.00,Acu-Link.com,2013-12-11 18:15:00,
2013-12-11 12:31:00,48.6,27.7,30.23,NNW,337,5.8,-999.0,44,-99.99,,,0.00,Acu-Link.com,2013-12-11 18:31:00,
2013-12-11 12:46:00,48.4,28.0,30.23,North,0,6.8,-999.0,45,-99.99,,,0.00,Acu-Link.com,2013-12-11 18:46:00,
2013-12-11 13:01:00,48.4,27.5,30.23,NNW,337,4.7,-999.0,44,-99.99,,,0.00,Acu-Link.com,2013-12-11 19:01:00,
2013-12-11 13:16:00,49.6,27.5,30.22,NE,45,3.7,-999.0,42,-99.99,,,0.00,Acu-Link.com,2013-12-11 19:16:00,
2013-12-11 13:31:00,49.1,27.6,30.22,West,270,3.7,-999.0,43,-99.99,,,0.00,Acu-Link.com,2013-12-11 19:31:00,
2013-12-11 13:47:00,48.9,28.0,30.22,WNW,292,5.8,-999.0,44,-99.99,,,0.00,Acu-Link.com,2013-12-11 19:47:00,
2013-12-11 14:02:00,50.2,27.4,30.23,NE,45,9.4,-999.0,41,-99.99,,,0.00,Acu-Link.com,2013-12-11 20:02:00,
2013-12-11 14:17:00,49.6,28.0,30.23,NE,45,6.3,-999.0,43,-99.99,,,0.00,Acu-Link.com,2013-12-11 20:17:00,
2013-12-11 14:32:00,50.4,27.6,30.23,NE,45,7.3,-999.0,41,-99.99,,,0.00,Acu-Link.com,2013-12-11 20:32:00,
2013-12-11 14:47:00,50.0,27.2,30.24,NNW,337,7.3,-999.0,41,-99.99,,,0.00,Acu-Link.com,2013-12-11 20:47:00,
2013-12-11 15:02:00,48.7,28.9,30.26,NNW,337,5.8,-999.0,46,-99.99,,,0.00,Acu-Link.com,2013-12-11 21:02:00,
2013-12-11 15:18:00,47.8,28.6,30.26,NNE,22,6.8,-999.0,47,-99.99,,,0.00,Acu-Link.com,2013-12-11 21:18:00,
2013-12-11 15:33:00,47.1,29.4,30.26,NW,315,7.3,-999.0,50,-99.99,,,0.00,Acu-Link.com,2013-12-11 21:33:00,
2013-12-11 15:48:00,46.2,28.6,30.26,NNE,22,7.3,-999.0,50,-99.99,,,0.00,Acu-Link.com,2013-12-11 21:48:00,
2013-12-11 16:03:00,45.1,28.5,30.26,NW,315,6.3,-999.0,52,-99.99,,,0.00,Acu-Link.com,2013-12-11 22:03:00,
2013-12-11 16:18:00,44.2,28.6,30.27,NNE,22,6.8,-999.0,54,-99.99,,,0.00,Acu-Link.com,2013-12-11 22:18:00,
2013-12-11 16:33:00,43.2,28.6,30.28,NNW,337,7.8,-999.0,56,-99.99,,,0.00,Acu-Link.com,2013-12-11 22:33:00,
2013-12-11 16:48:00,42.3,29.4,30.29,NNW,337,5.8,-999.0,60,-99.99,,,0.00,Acu-Link.com,2013-12-11 22:48:00,
2013-12-11 17:03:00,41.4,29.0,30.30,NNE,22,5.8,-999.0,61,-99.99,,,0.00,Acu-Link.com,2013-12-11 23:03:00,
2013-12-11 17:19:00,40.5,28.9,30.31,NNW,337,4.2,-999.0,63,-99.99,,,0.00,Acu-Link.com,2013-12-11 23:19:00,
2013-12-11 17:34:00,39.6,28.8,30.31,NE,45,5.3,-999.0,65,-99.99,,,0.00,Acu-Link.com,2013-12-11 23:34:00,
2013-12-11 17:49:00,38.8,28.4,30.31,NW,315,4.7,-999.0,66,-99.99,,,0.00,Acu-Link.com,2013-12-11 23:49:00,
2013-12-11 18:04:00,38.5,28.5,30.32,NNE,22,6.3,-999.0,67,-99.99,,,0.00,Acu-Link.com,2013-12-12 00:04:00,
2013-12-11 18:19:00,37.9,27.9,30.32,NNW,337,4.7,-999.0,67,-99.99,,,0.00,Acu-Link.com,2013-12-12 00:19:00,
2013-12-11 18:35:00,37.2,27.6,30.33,NNE,22,2.7,-999.0,68,-99.99,,,0.00,Acu-Link.com,2013-12-12 00:35:00,
2013-12-11 18:50:00,36.5,27.7,30.33,North,0,2.7,-999.0,70,-99.99,,,0.00,Acu-Link.com,2013-12-12 00:50:00,
2013-12-11 19:05:00,36.0,27.2,30.34,North,0,2.7,-999.0,70,-99.99,,,0.00,Acu-Link.com,2013-12-12 01:05:00,
2013-12-11 19:20:00,36.0,27.5,30.36,North,0,3.2,-999.0,71,-99.99,,,0.00,Acu-Link.com,2013-12-12 01:20:00,
2013-12-11 19:36:00,35.8,27.7,30.35,North,0,3.2,-999.0,72,-99.99,,,0.00,Acu-Link.com,2013-12-12 01:36:00,
2013-12-11 19:51:00,35.4,27.3,30.35,North,0,3.7,-999.0,72,-99.99,,,0.00,Acu-Link.com,2013-12-12 01:51:00,
2013-12-11 20:06:00,34.9,27.1,30.36,North,0,2.7,-999.0,73,-99.99,,,0.00,Acu-Link.com,2013-12-12 02:06:00,
2013-12-11 20:21:00,34.2,26.8,30.36,North,0,1.1,-999.0,74,-99.99,,,0.00,Acu-Link.com,2013-12-12 02:21:00,
2013-12-11 20:36:00,33.6,26.5,30.37,North,0,1.1,-999.0,75,-99.99,,,0.00,Acu-Link.com,2013-12-12 02:36:00,
2013-12-11 20:51:00,33.1,26.4,30.37,North,0,0.0,-999.0,76,-99.99,,,0.00,Acu-Link.com,2013-12-12 02:51:00,
2013-12-11 21:07:00,33.1,26.4,30.37,North,0,2.7,-999.0,76,-99.99,,,0.00,Acu-Link.com,2013-12-12 03:07:00,
2013-12-11 21:22:00,33.1,26.7,30.38,North,0,0.0,-999.0,77,-99.99,,,0.00,Acu-Link.com,2013-12-12 03:22:00,
2013-12-11 21:37:00,32.5,26.1,30.37,North,0,2.7,-999.0,77,-99.99,,,0.00,Acu-Link.com,2013-12-12 03:37:00,
2013-12-11 21:52:00,32.2,25.8,30.39,North,0,0.0,-999.0,77,-99.99,,,0.00,Acu-Link.com,2013-12-12 03:52:00,
2013-12-11 22:07:00,32.0,26.2,30.39,North,0,0.0,-999.0,79,-99.99,,,0.00,Acu-Link.com,2013-12-12 04:07:00,
2013-12-11 22:23:00,31.6,25.8,30.39,North,0,1.7,-999.0,79,-99.99,,,0.00,Acu-Link.com,2013-12-12 04:23:00,
2013-12-11 22:38:00,31.5,25.8,30.39,North,0,2.7,-999.0,79,-99.99,,,0.00,Acu-Link.com,2013-12-12 04:38:00,
2013-12-11 22:54:00,31.3,25.9,30.40,North,0,2.7,-999.0,80,-99.99,,,0.00,Acu-Link.com,2013-12-12 04:54:00,
2013-12-11 23:09:00,31.1,25.7,30.40,North,0,2.7,-999.0,80,-99.99,,,0.00,Acu-Link.com,2013-12-12 05:09:00,
2013-12-11 23:24:00,31.1,25.7,30.40,North,0,3.7,-999.0,80,-99.99,,,0.00,Acu-Link.com,2013-12-12 05:24:00,
2013-12-11 23:39:00,31.1,25.7,30.39,North,0,2.2,-999.0,80,-99.99,,,0.00,Acu-Link.com,2013-12-12 05:39:00,
2013-12-11 23:55:00,30.6,25.2,30.40,North,0,2.7,-999.0,80,-99.99,,,0.00,Acu-Link.com,2013-12-12 05:55:00,